When you browse on this site, cookies collect data to enhance your experience and personalize the content and advertising you see.
Visit our Privacy Policy to learn more. By continuing to use the site, you agree to this use of cookies and data.
  • In Hungary
  • List of Countries
  • For 7 days
  • Water Temperature
  • Satellite Maps
  • Weather Map
  • News
  • Weather Widgets
  • user-avatar
    Login

    Hourly Weather Zaria

    Today, 21 November, Wednesday

    Time Temperature Precipitation Wind Pressure Humidity
    00:00 +26°C° 0 mm 2 mps 705 mmHg 22%
    01:00 +25°C° 0 mm 2 mps 704 mmHg 23%
    02:00 +24°C° 0 mm 2 mps 704 mmHg 23%
    03:00 +24°C° 0 mm 2 mps 704 mmHg 23%
    04:00 +24°C° 0 mm 2 mps 704 mmHg 23%
    05:00 +23°C° 0 mm 2 mps 704 mmHg 24%
    06:00 +23°C° 0 mm 2 mps 704 mmHg 24%
    07:00 +23°C° 0 mm 2 mps 705 mmHg 25%
    08:00 +26°C° 0 mm 3 mps 705 mmHg 22%
    09:00 +29°C° 0 mm 4 mps 705 mmHg 18%
    10:00 +32°C° 0 mm 4 mps 706 mmHg 15%
    11:00 +34°C° 0 mm 4 mps 705 mmHg 14%
    12:00 +36°C° 0 mm 4 mps 705 mmHg 13%
    13:00 +38°C° 0 mm 4 mps 705 mmHg 13%
    14:00 +37°C° 0 mm 4 mps 704 mmHg 13%
    15:00 +37°C° 0 mm 4 mps 703 mmHg 13%
    16:00 +37°C° 0 mm 3 mps 703 mmHg 13%
    17:00 +35°C° 0 mm 3 mps 703 mmHg 15%
    18:00 +31°C° 0 mm 3 mps 703 mmHg 17%
    19:00 +29°C° 0 mm 2 mps 703 mmHg 19%
    20:00 +28°C° 0 mm 2 mps 703 mmHg 19%
    21:00 +27°C° 0 mm 3 mps 704 mmHg 19%
    22:00 +27°C° 0 mm 3 mps 704 mmHg 20%
    23:00 +26°C° 0 mm 3 mps 704 mmHg 19%

    Tomorrow, 22 November, Thursday

    Time Temperature Precipitation Wind Pressure Humidity
    00:00 +25°C° 0 mm 3 mps 704 mmHg 19%
    01:00 +25°C° 0 mm 3 mps 704 mmHg 18%
    02:00 +24°C° 0 mm 3 mps 704 mmHg 19%
    03:00 +22°C° 0 mm 3 mps 703 mmHg 19%
    04:00 +21°C° 0 mm 2 mps 703 mmHg 19%
    05:00 +21°C° 0 mm 2 mps 703 mmHg 19%
    06:00 +21°C° 0 mm 2 mps 703 mmHg 20%
    07:00 +20°C° 0 mm 2 mps 703 mmHg 20%
    08:00 +24°C° 0 mm 3 mps 704 mmHg 17%
    09:00 +28°C° 0 mm 4 mps 705 mmHg 14%
    10:00 +32°C° 0 mm 5 mps 706 mmHg 11%
    11:00 +34°C° 0 mm 4 mps 705 mmHg 10%
    12:00 +35°C° 0 mm 4 mps 705 mmHg 10%
    13:00 +37°C° 0 mm 4 mps 704 mmHg 9%
    14:00 +37°C° 0 mm 4 mps 704 mmHg 9%
    15:00 +37°C° 0 mm 4 mps 703 mmHg 9%
    16:00 +37°C° 0 mm 3 mps 703 mmHg 9%
    17:00 +34°C° 0 mm 3 mps 703 mmHg 10%
    18:00 +31°C° 0 mm 3 mps 703 mmHg 11%
    19:00 +28°C° 0 mm 2 mps 703 mmHg 12%
    20:00 +28°C° 0 mm 2 mps 703 mmHg 12%
    21:00 +27°C° 0 mm 2 mps 703 mmHg 12%
    22:00 +26°C° 0 mm 2 mps 704 mmHg 11%
    23:00 +25°C° 0 mm 2 mps 704 mmHg 11%

    Day after tomorrow, 23 November, Friday

    Time Temperature Precipitation Wind Pressure Humidity
    00:00 +24°C° 0 mm 2 mps 704 mmHg 11%
    01:00 +24°C° 0 mm 2 mps 704 mmHg 11%
    02:00 +23°C° 0 mm 2 mps 703 mmHg 12%
    03:00 +21°C° 0 mm 2 mps 703 mmHg 13%
    04:00 +21°C° 0 mm 1 mps 703 mmHg 13%
    05:00 +21°C° 0 mm 1 mps 703 mmHg 14%
    06:00 +21°C° 0 mm 1 mps 703 mmHg 15%
    07:00 +20°C° 0 mm 2 mps 704 mmHg 16%
    08:00 +24°C° 0 mm 2 mps 704 mmHg 14%
    09:00 +28°C° 0 mm 3 mps 705 mmHg 11%
    10:00 +31°C° 0 mm 3 mps 706 mmHg 9%
    11:00 +34°C° 0 mm 3 mps 706 mmHg 9%
    12:00 +35°C° 0 mm 3 mps 705 mmHg 8%
    13:00 +37°C° 0 mm 2 mps 704 mmHg 8%
    14:00 +37°C° 0 mm 2 mps 704 mmHg 8%
    15:00 +37°C° 0 mm 2 mps 703 mmHg 8%
    16:00 +37°C° 0 mm 2 mps 702 mmHg 8%
    17:00 +34°C° 0 mm 2 mps 702 mmHg 10%
    18:00 +31°C° 0 mm 2 mps 702 mmHg 11%
    19:00 +28°C° 0 mm 2 mps 703 mmHg 13%
    20:00 +27°C° 0 mm 2 mps 703 mmHg 13%
    21:00 +26°C° 0 mm 2 mps 704 mmHg 13%
    22:00 +26°C° 0 mm 2 mps 704 mmHg 13%
    23:00 +25°C° 0 mm 2 mps 704 mmHg 13%

    24 November, Saturday

    Time Temperature Precipitation Wind Pressure Humidity
    00:00 +24°C° 0 mm 2 mps 704 mmHg 13%
    01:00 +23°C° 0 mm 2 mps 703 mmHg 13%
    02:00 +23°C° 0 mm 2 mps 703 mmHg 13%
    03:00 +21°C° 0 mm 2 mps 703 mmHg 13%
    04:00 +20°C° 0 mm 2 mps 702 mmHg 13%
    05:00 +20°C° 0 mm 2 mps 703 mmHg 13%
    06:00 +20°C° 0 mm 2 mps 703 mmHg 14%
    07:00 +19°C° 0 mm 2 mps 703 mmHg 15%
    08:00 +24°C° 0 mm 3 mps 704 mmHg 13%
    09:00 +27°C° 0 mm 4 mps 705 mmHg 11%
    10:00 +32°C° 0 mm 4 mps 705 mmHg 9%
    11:00 +33°C° 0 mm 4 mps 705 mmHg 9%
    12:00 +35°C° 0 mm 3 mps 704 mmHg 8%
    13:00 +37°C° 0 mm 3 mps 704 mmHg 8%
    14:00 +37°C° 0 mm 3 mps 703 mmHg 8%
    15:00 +37°C° 0 mm 2 mps 703 mmHg 8%
    16:00 +37°C° 0 mm 2 mps 702 mmHg 8%
    17:00 +35°C° 0 mm 2 mps 703 mmHg 9%
    18:00 +31°C° 0 mm 2 mps 703 mmHg 11%
    19:00 +29°C° 0 mm 2 mps 703 mmHg 12%
    20:00 +28°C° 0 mm 2 mps 703 mmHg 12%
    21:00 +27°C° 0 mm 2 mps 704 mmHg 13%
    22:00 +26°C° 0 mm 2 mps 704 mmHg 13%
    23:00 +25°C° 0 mm 3 mps 704 mmHg 13%

    25 November, Sunday

    Time Temperature Precipitation Wind Pressure Humidity
    00:00 +24°C° 0 mm 3 mps 704 mmHg 13%
    01:00 +24°C° 0 mm 3 mps 703 mmHg 14%
    02:00 +22°C° 0 mm 3 mps 703 mmHg 15%
    03:00 +22°C° 0 mm 3 mps 703 mmHg 16%
    04:00 +21°C° 0 mm 3 mps 702 mmHg 17%
    05:00 +21°C° 0 mm 3 mps 703 mmHg 19%
    06:00 +20°C° 0 mm 3 mps 703 mmHg 21%
    07:00 +20°C° 0 mm 3 mps 703 mmHg 23%
    08:00 +23°C° 0 mm 4 mps 704 mmHg 20%
    09:00 +27°C° 0 mm 4 mps 705 mmHg 18%
    10:00 +32°C° 0 mm 5 mps 705 mmHg 15%
    11:00 +33°C° 0 mm 5 mps 705 mmHg 14%
    12:00 +35°C° 0 mm 5 mps 704 mmHg 12%
    13:00 +37°C° 0 mm 4 mps 704 mmHg 11%
    14:00 +37°C° 0 mm 4 mps 703 mmHg 11%
    15:00 +37°C° 0 mm 4 mps 703 mmHg 10%
    16:00 +37°C° 0 mm 3 mps 702 mmHg 10%
    17:00 +35°C° 0 mm 3 mps 702 mmHg 13%
    18:00 +31°C° 0 mm 3 mps 702 mmHg 15%
    19:00 +29°C° 0 mm 3 mps 702 mmHg 17%
    20:00 +28°C° 0 mm 3 mps 703 mmHg 18%
    21:00 +27°C° 0 mm 3 mps 703 mmHg 19%
    22:00 +26°C° 0 mm 3 mps 703 mmHg 20%
    23:00 +25°C° 0 mm 3 mps 703 mmHg 21%

    26 November, Monday

    Time Temperature Precipitation Wind Pressure Humidity
    00:00 +25°C° 0 mm 3 mps 703 mmHg 22%
    01:00 +24°C° 0 mm 3 mps 702 mmHg 23%
    02:00 +22°C° 0 mm 3 mps 702 mmHg 24%
    03:00 +22°C° 0 mm 3 mps 702 mmHg 25%
    04:00 +21°C° 0 mm 3 mps 702 mmHg 26%
    05:00 +21°C° 0 mm 3 mps 702 mmHg 26%
    06:00 +21°C° 0 mm 3 mps 702 mmHg 27%
    07:00 +20°C° 0 mm 3 mps 703 mmHg 27%
    08:00 +23°C° 0 mm 4 mps 703 mmHg 23%
    09:00 +27°C° 0 mm 4 mps 704 mmHg 19%
    10:00 +32°C° 0 mm 5 mps 705 mmHg 16%
    11:00 +34°C° 0 mm 5 mps 704 mmHg 14%
    12:00 +36°C° 0 mm 4 mps 704 mmHg 12%
    13:00 +38°C° 0 mm 4 mps 703 mmHg 11%
    14:00 +38°C° 0 mm 4 mps 703 mmHg 11%
    15:00 +38°C° 0 mm 4 mps 702 mmHg 10%
    16:00 +38°C° 0 mm 3 mps 702 mmHg 10%
    17:00 +35°C° 0 mm 3 mps 702 mmHg 12%
    18:00 +31°C° 0 mm 3 mps 702 mmHg 14%
    19:00 +29°C° 0 mm 3 mps 702 mmHg 16%
    20:00 +28°C° 0 mm 3 mps 702 mmHg 16%
    21:00 +27°C° 0 mm 3 mps 703 mmHg 16%
    22:00 +26°C° 0 mm 3 mps 703 mmHg 17%
    23:00 +25°C° 0 mm 3 mps 703 mmHg 17%
    Show more